User: anonymous   Login
Location: Antichan
(42.9728°N, 0.6667°E)
Time: 23:32:08
(UTC+00:00)
Language:

Cosmos 192 - Orbit

View from above orbital plane
View from above orbital plane
View from above satellite
View from above satellite

Ground track
Ground track

The orbit data is extracted from the following two-line orbital elements,

1  3047U 67116A   20293.20219736  .00000027  00000-0  12771-4 0  9992
2  3047  74.0130 342.5814 0009595 293.7795  66.2362 14.55650298798170
Epoch (UTC): 19 October 2020 04:51:09
Eccentricity: 0.0009595
inclination: 74.0130°
perigee height: 700 km
apogee height: 714 km
right ascension of ascending node: 342.5814°
argument of perigee: 293.7795°
revolutions per day: 14.55650298
mean anomaly at epoch: 66.2362°
orbit number at epoch: 79817

The dashed part of the orbit path shows where the satellite is in the earth's shadow,  

DLR